Wind_Speed
7 6 6 5 5 5 4 4 3 3 3 3 3 3 3 3 3 4 5 5 4 4 4 5 5 6 7 8 8 8 9 8 7 7 7 7 7 7 7 7 8 7 7
7 7 7 6 6 5 5 5 4 4 3 3 3 3 3 3 4 4 4 4 4 4 4 5 6 7 8 8 8 8 8 8 7 6 6 7 7 7 7 7 8 7 7
8 7 7 7 6 6 6 5 5 5 4 3 3 3 4 4 4 3 3 4 4 4 4 5 6 7 7 8 7 8 7 7 6 6 6 6 6 7 8 8 7 6 6
8 7 7 7 6 6 6 6 6 6 6 5 4 4 4 4 4 4 4 4 4 4 4 4 6 6 7 7 6 6 7 7 6 6 6 6 6 6 7 7 6 6 6
8 7 8 7 6 6 7 7 7 7 6 6 5 4 4 4 4 4 4 4 4 4 4 4 6 6 5 4 5 6 7 6 7 7 7 6 6 5 5 5 6 6 7
8 8 8 7 7 7 8 7 7 7 6 6 5 4 4 4 4 4 4 3 3 4 4 4 5 5 4 4 4 5 5 5 5 6 6 5 4 4 4 5 6 7 7
9 8 7 8 8 8 7 7 6 6 6 6 5 5 4 5 5 4 4 4 4 4 3 4 4 4 4 4 5 4 4 4 4 5 4 4 3 4 4 4 5 5 6
9 9 9 8 8 8 7 7 6 6 6 6 5 5 6 6 6 5 5 4 4 4 3 3 4 4 4 4 4 4 3 3 4 4 3 3 3 3 3 4 4 5 6
10 10 10 9 8 7 7 7 6 6 6 6 6 6 7 7 6 6 5 4 3 4 4 4 4 3 3 3 3 3 3 2 2 2 2 2 2 3 3 3 4 4 5
9 9 9 9 9 8 7 7 6 7 7 7 6 6 7 7 6 6 5 4 4 4 4 3 2 2 2 2 2 2 1 1 1 1 1 1 1 1 1 2 3 3 4
10 10 10 9 9 9 8 8 8 8 7 7 7 6 7 7 7 6 6 5 4 4 4 3 2 2 2 2 1 2 2 1 1 1 1 1 0 1 1 2 3 3 3
10 10 11 10 9 10 10 10 10 9 8 7 7 7 7 7 7 6 6 5 5 4 4 4 3 3 2 2 1 1 1 2 2 2 2 1 0 1 2 3 3 3 3
10 10 10 10 10 9 10 11 11 10 10 9 8 8 7 7 7 6 6 5 5 5 4 4 5 4 3 2 2 1 1 1 1 1 1 1 1 1 2 3 4 4 4
9 10 10 10 9 9 10 11 10 10 9 9 9 8 7 6 5 5 5 6 6 5 5 4 4 4 4 3 3 2 2 2 1 1 1 2 2 3 3 3 5 5 6
10 10 10 10 10 10 9 9 9 9 9 9 9 9 8 7 6 6 6 5 5 4 4 5 5 5 4 3 3 3 2 2 2 1 2 2 3 4 4 5 5 6 6
10 10 10 9 9 9 9 9 8 8 8 8 8 8 8 7 6 6 7 6 5 5 5 5 5 5 5 4 3 2 3 2 2 2 3 3 4 5 5 6 7 7 7
11 10 10 10 9 9 8 8 8 7 7 8 8 8 8 7 7 6 6 6 6 5 5 5 5 5 4 3 3 3 3 3 4 4 4 5 6 6 7 7 8 8 8
10 10 10 9 8 9 9 8 8 7 7 7 7 8 8 8 7 6 6 6 6 5 5 6 5 5 4 4 4 4 4 4 5 5 5 6 6 7 7 7 8 8 8
11 9 9 9 9 8 8 8 7 6 6 7 7 7 7 7 7 6 5 5 5 5 5 5 5 5 5 4 4 5 5 5 5 5 6 6 6 7 7 8 8 8 8
11 10 9 8 8 7 7 7 7 6 6 6 6 6 6 6 5 5 4 5 5 5 5 5 5 5 6 5 5 6 6 6 6 6 6 6 6 7 7 8 8 9 9
10 10 9 9 8 8 7 7 7 7 7 6 6 6 6 5 5 5 5 6 6 6 6 6 6 6 7 6 6 6 7 7 6 6 6 7 7 7 8 9 9 10 10
8 8 8 9 8 7 7 7 7 7 7 7 7 7 6 6 5 5 5 5 6 6 7 7 7 7 7 7 7 8 7 7 7 7 7 7 8 8 9 9 10 10 11
7 7 7 7 7 6 6 7 7 7 6 7 7 7 7 6 6 6 6 6 6 7 7 8 8 8 8 8 8 8 7 7 7 7 8 8 8 9 10 11 11 11 11
7 7 7 7 6 6 6 6 6 5 6 6 6 6 6 7 7 8 8 7 7 8 8 8 8 8 8 8 8 8 8 8 7 7 8 9 10 11 11 12 12 13 13
6 6 7 6 6 5 5 5 6 5 6 6 5 6 6 7 8 9 9 8 8 8 9 9 8 9 8 8 8 8 9 9 9 9 9 10 11 12 12 13 14 14 14
5 5 6 6 6 5 5 5 5 5 6 6 6 5 6 7 8 8 9 8 9 9 9 10 10 10 9 9 9 9 9 9 9 9 10 10 11 12 13 13 14 14 15
Wind_Direction
67 69 75 69 68 79 85 82 86 108 126 143 148 148 143 131 131 131 127 137 144 152 159 158 155 157 159 166 173 179 182 185 179 187 186 183 187 196 203 204 203 204 208
75 74 70 70 71 75 79 78 81 100 107 117 134 134 133 125 129 121 114 125 130 129 135 142 149 153 160 167 172 179 173 169 159 157 161 171 181 191 196 200 204 204 206
75 75 72 75 77 77 78 77 81 89 93 102 113 122 124 123 120 118 128 133 134 129 130 137 143 152 159 166 169 173 171 167 162 166 168 172 183 190 197 202 204 211 219
74 73 70 69 74 80 80 81 79 87 90 90 98 107 113 123 116 114 121 127 134 134 131 131 142 152 157 162 172 176 172 170 170 177 178 178 186 198 200 204 210 224 229
73 71 70 67 69 78 84 84 85 87 90 91 94 100 115 123 125 129 123 118 121 126 129 135 152 154 152 155 162 173 177 183 180 180 180 180 186 195 204 215 229 232 234
75 69 65 68 72 80 87 85 81 85 87 91 91 91 103 110 119 118 117 118 122 123 117 130 156 157 150 149 162 170 177 181 184 186 189 187 184 194 205 220 231 234 234
76 74 66 71 77 82 81 81 79 83 87 91 89 90 92 94 92 103 110 106 104 109 107 118 154 156 146 151 150 160 172 181 190 206 219 211 207 212 224 234 233 233 230
71 77 75 71 77 82 77 80 83 86 87 92 89 82 92 92 91 95 98 98 102 102 92 104 135 151 132 140 151 153 163 176 183 187 199 216 212 227 243 245 238 240 238
66 72 74 74 71 75 74 77 79 87 87 92 90 86 94 95 93 97 97 99 100 87 84 111 127 139 145 135 149 133 166 171 190 185 186 206 220 236 252 244 244 244 238
61 65 76 77 76 75 74 73 73 83 87 93 92 90 93 90 90 97 98 95 95 90 89 108 117 130 138 124 139 139 136 100 58 329 267 211 228 248 259 247 239 239 238
64 63 66 76 78 80 75 71 77 83 86 88 89 90 94 93 89 91 92 84 79 82 90 99 104 115 111 110 107 106 108 74 60 47 28 346 284 270 279 272 263 260 253
67 65 62 60 67 70 73 77 79 82 84 86 84 89 95 96 89 89 86 85 84 82 87 90 95 88 80 80 85 72 48 43 54 40 30 24 318 293 280 281 276 273 272
71 68 66 62 65 66 67 71 76 81 84 86 83 83 89 92 90 88 86 84 82 87 87 85 82 79 72 71 58 40 33 30 38 8 6 4 349 307 280 281 278 274 274
71 72 71 67 65 65 69 70 69 71 74 76 79 78 80 83 82 77 78 84 84 81 71 67 61 57 64 63 52 46 37 23 25 10 338 331 329 312 292 289 286 280 275
71 71 72 68 68 68 68 66 69 70 69 69 69 67 65 63 64 65 70 81 73 66 51 49 37 39 43 35 32 31 15 29 22 355 331 331 324 314 304 299 293 288 290
68 69 68 68 67 68 69 67 69 74 76 77 75 72 67 65 69 72 72 69 63 57 53 47 37 31 35 30 21 7 348 342 336 315 311 312 310 311 306 301 297 292 291
67 68 68 66 64 65 67 68 65 70 79 78 76 69 66 64 65 70 70 63 54 52 43 38 30 28 26 17 5 346 331 319 317 309 307 306 302 304 307 305 300 298 297
65 63 59 57 58 63 62 65 67 67 70 66 66 63 60 58 58 59 57 49 45 37 29 25 15 8 1 349 342 330 322 316 310 303 302 300 297 300 306 308 305 303 302
58 56 53 52 51 58 62 70 71 70 68 64 60 59 56 54 51 51 46 34 26 20 20 13 6 359 348 339 332 327 321 316 315 309 300 297 299 302 302 303 303 303 302
54 55 52 52 50 61 65 64 62 61 59 59 54 52 49 50 46 38 30 27 19 14 11 3 360 356 348 342 332 330 330 322 315 308 298 292 296 302 303 303 303 303 301
47 47 50 49 53 61 63 56 51 53 51 48 43 46 47 45 38 28 21 17 12 5 360 356 352 344 339 337 329 323 322 319 317 316 310 305 301 302 303 304 303 300 300
47 46 46 45 53 62 61 53 48 46 47 45 43 42 40 37 29 17 10 6 3 359 353 349 344 336 332 329 321 311 310 308 310 312 313 310 309 309 308 307 304 303 304
44 45 44 43 53 56 52 46 44 43 40 36 35 36 32 24 14 9 7 4 1 353 347 343 341 337 330 325 324 320 316 310 307 311 311 309 309 307 306 304 302 303 304
36 38 39 41 42 42 42 41 36 36 29 26 25 24 21 17 12 5 5 3 1 357 349 344 341 338 334 328 324 319 317 314 310 309 307 306 305 303 303 301 299 299 301
28 32 32 33 33 33 32 29 27 24 22 20 19 14 10 5 3 1 359 357 357 356 351 345 342 338 334 332 331 324 319 316 313 312 310 303 303 304 302 301 299 298 298
20 22 23 25 24 20 18 18 17 18 17 14 11 5 1 358 355 354 353 352 351 351 347 345 343 338 333 330 329 326 321 318 315 312 314 311 306 304 305 304 302 298 298
Height
5882 5881 5881 5880 5880 5880 5880 5879 5879 5879 5879 5879 5880 5880 5880 5880 5880 5880 5879 5879 5880 5881 5880 5880 5880 5880 5879 5880 5882 5883 5883 5885 5885 5886 5886 5887 5888 5888 5889 5890 5891 5891 5892
5883 5882 5882 5881 5881 5881 5881 5880 5880 5880 5880 5880 5880 5881 5881 5881 5881 5881 5881 5881 5881 5881 5881 5881 5881 5881 5881 5882 5883 5883 5884 5885 5886 5886 5886 5887 5887 5888 5889 5889 5890 5890 5891
5884 5884 5883 5882 5882 5882 5882 5882 5881 5881 5881 5881 5881 5881 5882 5882 5882 5882 5882 5882 5882 5882 5882 5882 5882 5882 5883 5883 5884 5884 5884 5885 5886 5886 5887 5887 5887 5888 5888 5889 5889 5890 5890
5885 5885 5884 5884 5884 5883 5883 5883 5882 5882 5882 5882 5882 5882 5882 5882 5883 5883 5883 5883 5883 5882 5883 5883 5883 5883 5883 5884 5884 5885 5885 5886 5886 5887 5887 5887 5887 5887 5888 5888 5889 5889 5890
5886 5886 5885 5885 5885 5884 5884 5884 5884 5883 5883 5883 5883 5883 5883 5883 5883 5883 5883 5883 5883 5883 5883 5884 5883 5883 5884 5885 5885 5886 5886 5886 5886 5887 5887 5886 5887 5887 5888 5888 5888 5889 5889
5887 5887 5887 5887 5886 5886 5885 5885 5885 5885 5884 5884 5884 5884 5884 5884 5884 5884 5884 5884 5884 5884 5884 5884 5884 5884 5885 5886 5886 5886 5886 5886 5887 5887 5887 5887 5887 5888 5888 5888 5888 5888 5888
5889 5889 5889 5888 5887 5887 5887 5886 5886 5886 5886 5885 5885 5885 5884 5884 5884 5884 5885 5885 5885 5885 5884 5884 5884 5885 5885 5885 5886 5886 5886 5886 5887 5887 5887 5887 5887 5887 5888 5888 5887 5887 5888
5890 5890 5890 5889 5889 5888 5888 5887 5887 5887 5887 5887 5886 5886 5885 5885 5885 5885 5885 5885 5885 5885 5885 5884 5884 5885 5886 5886 5886 5886 5886 5886 5886 5887 5887 5887 5887 5887 5887 5887 5887 5886 5887
5892 5891 5890 5890 5890 5890 5889 5889 5888 5888 5888 5888 5887 5887 5886 5886 5886 5886 5886 5886 5886 5886 5886 5885 5885 5886 5886 5886 5886 5886 5886 5886 5886 5887 5887 5886 5886 5886 5886 5886 5886 5886 5886
5894 5893 5892 5892 5892 5891 5891 5890 5889 5889 5889 5889 5888 5888 5887 5887 5887 5887 5887 5887 5887 5887 5887 5887 5886 5886 5887 5887 5886 5886 5886 5886 5886 5886 5886 5886 5886 5886 5885 5885 5885 5885 5885
5895 5895 5894 5893 5893 5892 5892 5891 5891 5890 5890 5890 5890 5889 5889 5888 5888 5888 5888 5888 5888 5888 5887 5887 5887 5887 5887 5887 5887 5887 5887 5886 5886 5886 5886 5885 5885 5885 5885 5885 5885 5884 5884
5897 5897 5896 5895 5894 5894 5893 5893 5892 5892 5892 5891 5891 5890 5890 5890 5890 5889 5889 5889 5888 5888 5888 5888 5888 5888 5888 5887 5887 5887 5887 5886 5886 5886 5886 5885 5885 5885 5884 5884 5884 5884 5883
5899 5899 5898 5897 5896 5896 5895 5894 5894 5893 5893 5893 5893 5892 5892 5891 5891 5890 5890 5890 5890 5889 5889 5889 5889 5889 5888 5888 5888 5887 5887 5887 5886 5886 5886 5885 5885 5884 5884 5883 5883 5882 5882
5901 5900 5900 5899 5898 5898 5897 5896 5896 5895 5895 5894 5894 5894 5893 5893 5892 5892 5892 5891 5891 5891 5890 5890 5889 5889 5889 5888 5888 5887 5887 5887 5886 5886 5885 5885 5884 5883 5883 5882 5882 5881 5880
5902 5901 5901 5901 5900 5899 5899 5898 5898 5897 5897 5896 5895 5895 5894 5894 5893 5893 5893 5892 5892 5892 5891 5891 5890 5890 5889 5888 5888 5888 5887 5886 5886 5886 5885 5884 5884 5883 5882 5881 5881 5880 5879
5903 5903 5902 5902 5901 5901 5900 5900 5899 5899 5898 5897 5897 5896 5896 5895 5894 5894 5893 5893 5893 5893 5892 5892 5891 5890 5890 5889 5889 5888 5887 5886 5886 5885 5884 5884 5883 5882 5881 5880 5879 5878 5877
5905 5905 5904 5903 5903 5902 5902 5901 5901 5900 5899 5899 5898 5897 5897 5896 5895 5895 5895 5895 5894 5894 5893 5892 5892 5891 5890 5890 5889 5888 5887 5886 5885 5884 5883 5883 5882 5881 5880 5879 5877 5876 5875
5907 5906 5905 5904 5903 5903 5902 5902 5901 5901 5901 5900 5899 5898 5898 5897 5896 5896 5896 5895 5895 5894 5894 5893 5892 5891 5890 5889 5888 5887 5886 5885 5884 5883 5882 5881 5880 5879 5878 5877 5876 5874 5873
5908 5907 5906 5905 5904 5904 5903 5903 5902 5902 5901 5901 5900 5899 5899 5898 5897 5897 5896 5896 5895 5894 5893 5892 5891 5890 5889 5888 5887 5886 5885 5884 5883 5881 5880 5879 5878 5877 5876 5875 5873 5872 5871
5909 5908 5907 5906 5905 5904 5904 5904 5903 5902 5902 5901 5901 5900 5899 5899 5898 5897 5897 5896 5895 5894 5893 5892 5891 5889 5888 5887 5886 5885 5883 5882 5881 5880 5879 5878 5876 5875 5874 5872 5871 5870 5868
5910 5909 5908 5907 5906 5905 5905 5904 5903 5903 5902 5902 5901 5900 5900 5899 5898 5897 5896 5896 5895 5894 5892 5891 5889 5888 5887 5886 5885 5883 5882 5881 5879 5878 5877 5876 5874 5873 5872 5870 5869 5867 5866
5911 5910 5909 5908 5907 5906 5906 5905 5904 5903 5903 5902 5901 5901 5900 5899 5898 5897 5896 5895 5894 5893 5891 5890 5888 5887 5886 5884 5883 5882 5880 5879 5877 5876 5875 5873 5872 5871 5869 5868 5867 5865 5863
5912 5911 5910 5909 5908 5907 5906 5905 5904 5904 5903 5902 5902 5901 5900 5899 5898 5897 5896 5895 5893 5892 5890 5889 5887 5885 5884 5882 5881 5880 5878 5877 5876 5875 5873 5871 5870 5868 5867 5866 5864 5862 5861
5913 5912 5911 5909 5908 5907 5907 5906 5905 5904 5903 5903 5902 5901 5900 5899 5898 5896 5895 5894 5892 5891 5889 5887 5885 5884 5882 5880 5879 5877 5876 5875 5874 5873 5871 5869 5867 5866 5864 5862 5861 5859 5857
5912 5911 5910 5909 5908 5907 5907 5906 5905 5904 5903 5902 5901 5901 5900 5898 5897 5896 5894 5893 5891 5889 5888 5885 5883 5882 5880 5878 5877 5875 5873 5872 5870 5869 5868 5867 5865 5863 5861 5859 5857 5855 5853
5912 5911 5910 5909 5908 5907 5906 5906 5905 5904 5903 5902 5901 5900 5899 5898 5897 5895 5894 5892 5890 5888 5886 5884 5882 5880 5878 5876 5875 5873 5871 5870 5868 5866 5865 5863 5861 5860 5857 5855 5853 5851 5849